Weather in Pirogovo

Russia / Udmurt Republic     56°46′47″N   53°09′24″E
temp.,
°C
wind,
m/s
gust,
m/s
humid.,
%
clouds,
%
prec.,
mm/h
press.,
hPa
HPBL,
m
14 may, fri
fri1401:00+17sse225553 0.0 102417
04:00+16s226074 0.0 102524
07:00+19sse25546 0.0 1024176
10:00+24s45445 0.1 1024626
13:00+27s563515 0.0 10231510
16:00+26s67365 0.0 10221296
19:00+24s38515 0.0 1021176
22:00+19s3115986 0.0 1020183
15 may, sat
sat1501:00+17ssw312640 0.0 1020212
04:00+16sw3767100 0.0 1020122
07:00+19sw356586 0.0 1021181
10:00+24ssw455199 0.0 1020625
13:00+27ssw573792 0.0 10201094
16:00+27sw5839100 0.0 10191061
19:00+24ssw4953100 0.0 1018209
22:00+20sw4125581 0.0 1019225
16 may, sun
sun1601:00+18ssw356443 0.0 101969
04:00+16ssw35615 0.0 101967
07:00+20ssw39545 0.0 1019242
10:00+26ssw59385 0.0 1019675
13:00+29ssw79295 0.0 10181753
16:00+29sw69315 0.0 10172723
19:00+25ssw5104217 0.0 1017253
22:00+20ssw3554100 0.0 101660
17 may, mon
mon1701:00+18sw4106648 0.1 1016160
04:00+16wsw3571100 0.1 101780
07:00+19w346874 0.0 1018197
10:00+24wsw355279 0.0 1018855
13:00+27wsw693590 0.0 10172096
16:00+28w6103246 0.0 10172296
19:00+24w36505 0.0 1016135
22:00+20wnw22636 0.0 101718
18 may, tue
tue1801:00+17nw117633 0.9 101811
04:00+17e017894 1.0 101811
07:00+19wsw227063 0.0 1018166
10:00+25nw125180 0.0 1018713
13:00+28w263999 0.0 10172151
16:00+29w462812 0.0 10172770
19:00+26nw114223 0.0 101612
22:00+20e336153 0.0 101827